Voltar ao catálogo

STARLINK-37400

AtivoComunicaçõesSSO
NORAD 68777·PAYLOAD·🇺🇸 United States

Lançado Apr 19, 2026 de Vandenberg Space Force Base

Loading…

Próximas Passagens (próximas 24 horas)

TLE

AtualizadoSource: CelesTrak SupGP

Época: Sep 14, 2026, 22:52 UTC

1 68777C 26086M   26257.95326389  .00074299  00000+0  23089-2 0  2575
2 68777  97.2840 293.4741 0001032 104.6872 332.4410 15.33368238    11

Acompanhe STARLINK-37400 em tempo real com AllMySat

Download on the App Store